Weather History for KBTV - October, 2012

Change the Weather History Date:

Sunday, October 14, 2012

  Actual Average Record
Temperature  
Mean Temperature 51 °F 49 °F  
Max Temperature 61 °F 58 °F 79 °F (2014)
Min Temperature 40 °F 39 °F 22 °F (1937)
Degree Days  
Heating Degree Days 14 16  
Month to date heating degree days 171 195  
Since 1 July heating degree days 318 412  
Cooling Degree Days 0 0  
Month to date cooling degree days 1 0  
Year to date cooling degree days 747 489  
Moisture  
Dew Point 45 °F    
Average Humidity 78    
Maximum Humidity 86    
Minimum Humidity 70    
Precipitation  
Precipitation 0.18 in 0.12 in 1.12 in (1995)
Month to date precipitation 2.48 1.71  
Year to date precipitation 28.84 29.42  
Snow  
Snow 0.00 in 0.00 in 0.10 in (1979)
Month to date snowfall T 0.0  
Since 1 July snowfall T T  
Since 1 September snowfall T T  
Snow Depth 0.00 in    
Sea Level Pressure  
Sea Level Pressure 29.96 in    
Wind  
Wind Speed 14 mph (South)    
Max Wind Speed 26 mph    
Max Gust Speed 36 mph    
Visibility 10 miles    
Events Rain    
T = Trace of Precipitation, MM = Missing Value Source: NWS Daily Summary

Daily Weather History Graph

Daily Weather History Graph

Search for Another Location

Airport or City:

Trip Planner

Search our weather history database for the weather conditions in past years. The results will help you decide how hot, cold, wet, or windy it might be!

Date:

Astronomy

Oct. 14, 2012 Rise Set
Actual Time 7:07 AM EDT 6:09 PM EDT
Civil Twilight 6:37 AM EDT 6:38 PM EDT
Nautical Twilight 6:03 AM EDT 7:12 PM EDT
Astronomical Twilight 5:30 AM EDT 7:45 PM EDT
Moon 6:02 AM EDT (10/14) 5:26 PM EDT (10/14)
Length of Visible Light 12h 00m
Length of Day
11h 02m
Waning Crescent, 1% of the Moon is Illuminated
Oct 14
Waning Crescent
Oct 15
New
Oct 21
First Quarter
Oct 29
Full
Nov 6
Last Quarter

Hourly Weather History & Observations

Time (EDT) Temp. Windchill Dew Point Humidity Pressure Visibility Wind Dir Wind Speed Gust Speed Precip Events Conditions
1:54 AM 41.0 °F 36.4 °F 36.0 °F 82% 30.17 in 9.0 mi SSE 6.9 mph - 0.08 in Rain Light Rain
2:54 AM 41.0 °F 34.3 °F 37.0 °F 86% 30.11 in 8.0 mi South 11.5 mph 23.0 mph 0.06 in Rain Light Rain
3:54 AM 42.1 °F 35.7 °F 37.0 °F 82% 30.07 in 10.0 mi South 11.5 mph 18.4 mph 0.04 in   Overcast
4:54 AM 43.0 °F 35.4 °F 37.0 °F 80% 30.05 in 10.0 mi South 16.1 mph 23.0 mph 0.00 in   Overcast
5:54 AM 43.0 °F 35.1 °F 39.0 °F 86% 30.04 in 10.0 mi South 17.3 mph 26.5 mph 0.00 in Rain Light Rain
6:45 AM 44.6 °F 38.8 °F 39.2 °F 81% 30.02 in 10.0 mi South 11.5 mph 24.2 mph 0.00 in   Overcast
6:54 AM 44.1 °F 37.4 °F 39.9 °F 85% 30.03 in 10.0 mi South 13.8 mph 24.2 mph 0.00 in   Overcast
7:54 AM 46.0 °F 39.0 °F 41.0 °F 83% 30.04 in 10.0 mi South 17.3 mph 26.5 mph 0.00 in Rain Light Rain
8:54 AM 46.0 °F 39.6 °F 42.1 °F 86% 30.03 in 9.0 mi South 15.0 mph 23.0 mph 0.00 in   Light Drizzle
9:29 AM 46.4 °F 40.4 °F 42.8 °F 87% 30.02 in 10.0 mi South 13.8 mph 24.2 mph 0.00 in   Overcast
9:54 AM 46.9 °F - 42.1 °F 83% 30.03 in 10.0 mi South 16.1 mph 27.6 mph 0.00 in   Overcast
10:54 AM 48.0 °F - 43.0 °F 83% 30.02 in 10.0 mi South 10.4 mph 24.2 mph N/A   Overcast
11:54 AM 50.0 °F - 44.1 °F 80% 30.01 in 10.0 mi South 13.8 mph 23.0 mph N/A   Overcast
12:18 PM 50.0 °F - 44.6 °F 82% 30.00 in 10.0 mi South 16.1 mph 23.0 mph N/A   Overcast
12:54 PM 50.0 °F - 45.0 °F 83% 29.99 in 10.0 mi South 17.3 mph 23.0 mph N/A   Overcast
1:54 PM 51.1 °F - 46.0 °F 83% 29.98 in 10.0 mi South 13.8 mph 19.6 mph 0.00 in   Overcast
2:22 PM 51.8 °F - 46.4 °F 82% 29.96 in 10.0 mi South 13.8 mph 20.7 mph N/A   Overcast
2:54 PM 51.1 °F - 46.9 °F 86% 29.94 in 10.0 mi South 8.1 mph - 0.00 in Rain Light Rain
3:54 PM 53.6 °F - 48.2 °F 82% 29.91 in 10.0 mi South 13.8 mph 20.7 mph N/A   Overcast
4:01 PM 53.6 °F - 48.2 °F 82% 29.91 in 10.0 mi South 10.4 mph 20.7 mph N/A   Overcast
4:54 PM 55.0 °F - 48.9 °F 80% 29.91 in 10.0 mi South 11.5 mph - N/A   Overcast
5:08 PM 55.4 °F - 48.2 °F 77% 29.90 in 10.0 mi South 9.2 mph 17.3 mph N/A   Overcast
5:36 PM 57.2 °F - 48.2 °F 72% 29.89 in 10.0 mi South 11.5 mph 18.4 mph N/A   Overcast
5:54 PM 57.0 °F - 50.0 °F 77% 29.88 in 10.0 mi South 12.7 mph 19.6 mph N/A   Overcast
6:54 PM 57.0 °F - 50.0 °F 77% 29.86 in 10.0 mi South 12.7 mph - N/A   Mostly Cloudy
7:07 PM 57.2 °F - 50.0 °F 77% 29.85 in 10.0 mi South 15.0 mph 26.5 mph N/A   Mostly Cloudy
7:14 PM 57.2 °F - 50.0 °F 77% 29.85 in 10.0 mi South 15.0 mph 25.3 mph N/A   Mostly Cloudy
7:54 PM 57.0 °F - 51.1 °F 81% 29.85 in 10.0 mi South 16.1 mph 26.5 mph N/A   Clear
8:54 PM 57.0 °F - 51.1 °F 81% 29.83 in 10.0 mi South 10.4 mph - N/A   Clear
9:54 PM 57.9 °F - 51.1 °F 78% 29.82 in 10.0 mi SSW 8.1 mph - N/A   Clear
10:54 PM 60.1 °F - 52.0 °F 75% 29.79 in 10.0 mi South 12.7 mph 28.8 mph N/A   Clear
11:54 PM 61.0 °F - 51.1 °F 70% 29.76 in 10.0 mi South 21.9 mph 33.4 mph N/A   Clear